sat.trackr.live / text

‹ back to catalog

PIESAT-2 10

NORAD 62334 · 2024-241B

PAYLOAD ACTIVE UNKNOWN

§ Identity

Operator
Country
PRC
Launch date
2024-12-16
Launch site
TAISC
Launch vehicle
Mass (kg)
RCS (m²)

External: N2YO · Heavens-Above · Gunter

§ Orbital elements

Epoch: 2026-09-22T23:56:54.120768Z

Period
95.02 min
Inclination
97.5410°
Eccentricity
0.0001849
Mean motion
15.15437871 rev/d
Perigee alt
518.4 km
Apogee alt
520.9 km
Semi-major
6,897.8 km
B*
3.1593e-4
RAAN
213.1926°
Arg perigee
76.3528°
Mean anomaly
283.7910°
Rev number
9,761

§ Raw data

PIESAT-2 101 62334U 24241B   26265.99784862  .00005906  00000+0  31593-3 0  99982 62334  97.5410 213.1926 0001849  76.3528 283.7910 15.15437871 97618

JSON: /api/v1/satellites/62334 · /tle

For live sub-satellite position, see the globe view (requires WebGL).

§ Visibility from observer

Set your observer location to see the next 7 days of passes ≥ 10°. The values pass through the URL so the page stays shareable.

No JS? Fill the form by hand. The geolocation button needs JavaScript.